Juneau, AK

2:29 PM AKST on February 05, 2016 (GMT -0900)
Juneau International

Weather History for PAJN - November, 2012

Change the Weather History Date:

Sunday, November 25, 2012

  Actual Average Record
Temperature  
Mean Temperature 31 °F 32 °F  
Max Temperature 33 °F 36 °F 49 °F (1956)
Min Temperature 29 °F 28 °F -3 °F (1985)
Degree Days  
Heating Degree Days 34 33  
Month to date heating degree days 837 778  
Since 1 July heating degree days 2727 2463  
Moisture  
Dew Point 28 °F    
Average Humidity 81    
Maximum Humidity 100    
Minimum Humidity 61    
Precipitation  
Precipitation 0.32 in 0.20 in 2.10 in (1993)
Month to date precipitation 4.46 4.99  
Year to date precipitation 58.37 55.43  
Snow  
Snow 5.20 in 0.60 in 5.80 in (1970)
Month to date snowfall 12.2 10.3  
Since 1 July snowfall 13.6 11.1  
Since 1 September snowfall 13.6 11.1  
Snow Depth T in    
Sea Level Pressure  
Sea Level Pressure 30.18 in    
Wind  
Wind Speed 0 mph (East)    
Max Wind Speed 9 mph    
Max Gust Speed 10 mph    
Visibility 4 miles    
Events Snow    
T = Trace of Precipitation, MM = Missing Value Source: NWS Daily Summary

Daily Weather History Graph

Daily Weather History Graph

Search for Another Location

Airport or City:

Trip Planner

Search our weather history database for the weather conditions in past years. The results will help you decide how hot, cold, wet, or windy it might be!

Date:

Astronomy

Nov. 25, 2012 Rise Set
Actual Time 8:10 AM AKST 3:20 PM AKST
Civil Twilight 7:21 AM AKST 4:09 PM AKST
Nautical Twilight 6:30 AM AKST 4:59 PM AKST
Astronomical Twilight 5:42 AM AKST 5:47 PM AKST
Moon 2:04 PM AKST (11/25) 5:04 AM AKST (11/25)
Length of Visible Light 8h 47m
Length of Day
7h 10m
Waxing Gibbous, 93% of the Moon is Illuminated
Nov 25
Waxing Gibbous
Nov 28
Full
Dec 6
Last Quarter
Dec 12
New
Dec 19
First Quarter

Hourly Weather History & Observations

Time (AKST) Temp. Windchill Dew Point Humidity Pressure Visibility Wind Dir Wind Speed Gust Speed Precip Events Conditions
12:53 AM 30.9 °F 25.2 °F 23.0 °F 72% 30.12 in 10.0 mi East 5.8 mph - N/A   Overcast
1:53 AM 30.9 °F - 23.0 °F 72% 30.14 in 10.0 mi Calm Calm - N/A   Overcast
3:53 AM 30.0 °F - 28.0 °F 92% 30.14 in 10.0 mi Calm Calm - 0.00 in Snow Light Snow
4:53 AM 30.0 °F - 28.0 °F 92% 30.14 in 4.0 mi Calm Calm - 0.00 in Snow Light Snow
5:26 AM 28.4 °F - 28.4 °F 100% 30.14 in 2.0 mi Calm Calm - 0.02 in Snow Light Snow
5:53 AM 28.9 °F - 28.0 °F 96% 30.14 in 2.0 mi Calm Calm - 0.03 in Snow Light Snow
6:12 AM 30.2 °F - 28.4 °F 93% 30.14 in 1.5 mi Calm Calm - 0.01 in Snow Light Snow
6:53 AM 28.9 °F - 28.0 °F 96% 30.14 in 1.5 mi Calm Calm - 0.02 in Snow Light Snow
7:53 AM 28.9 °F - 28.9 °F 100% 30.14 in 1.0 mi Calm Calm - 0.03 in Snow Light Snow
8:53 AM 30.0 °F - 28.9 °F 96% 30.16 in 0.8 mi Calm Calm - 0.05 in Snow Light Snow
9:53 AM 30.0 °F - 28.0 °F 92% 30.16 in 1.0 mi Calm Calm - 0.03 in Snow Light Snow
10:06 AM 30.2 °F - 28.4 °F 93% 30.16 in 6.0 mi Calm Calm - 0.00 in Snow Light Snow
10:26 AM 30.2 °F - 28.4 °F 93% 30.16 in 4.0 mi Calm Calm - 0.01 in Snow Light Snow
10:53 AM 30.0 °F - 28.9 °F 96% 30.17 in 3.0 mi Calm Calm - 0.01 in Snow Light Snow
11:01 AM 30.2 °F - 28.4 °F 93% 30.17 in 1.5 mi Calm Calm - 0.00 in Snow Light Snow
11:53 AM 30.0 °F - 28.9 °F 96% 30.17 in 0.8 mi Calm Calm - 0.03 in Snow Light Snow
12:53 PM 30.0 °F - 28.9 °F 96% 30.17 in 1.0 mi Calm Calm - 0.04 in Snow Light Snow
1:53 PM 30.0 °F - 28.9 °F 96% 30.18 in 1.0 mi Calm Calm - 0.02 in Snow Light Snow
2:19 PM 30.2 °F - 28.4 °F 93% 30.18 in 2.0 mi Calm Calm - 0.01 in Snow Light Snow
2:34 PM 30.2 °F - 30.2 °F 100% 30.18 in 3.0 mi Calm Calm - 0.01 in Snow Light Snow
2:53 PM 30.0 °F - 28.9 °F 96% 30.18 in 3.0 mi Calm Calm - 0.01 in Snow Light Snow
3:28 PM 30.2 °F - 28.4 °F 93% 30.18 in 4.0 mi Calm Calm - 0.00 in Snow Light Snow
3:51 PM 30.2 °F - 28.4 °F 93% 30.18 in 2.5 mi Calm Calm - 0.01 in Snow Light Snow
3:53 PM 30.0 °F - 28.9 °F 96% 30.18 in 2.5 mi Calm Calm - 0.01 in Snow Light Snow
4:53 PM 30.0 °F - 28.9 °F 96% 30.19 in 2.5 mi Calm Calm - 0.00 in Snow Light Snow
5:15 PM 30.2 °F - 28.4 °F 93% 30.19 in 2.5 mi Calm Calm - 0.00 in Snow Light Snow
5:35 PM 30.2 °F - 28.4 °F 93% 30.19 in 2.0 mi Calm Calm - 0.01 in Snow Light Snow
5:53 PM 30.0 °F - 28.9 °F 96% 30.19 in 4.0 mi Calm Calm - 0.02 in Snow Light Snow
6:20 PM 28.4 °F 24.6 °F 28.4 °F 100% 30.20 in 4.0 mi East 3.5 mph - 0.00 in Snow Light Snow
6:53 PM 30.0 °F - 28.0 °F 92% 30.20 in 8.0 mi Calm Calm - 0.00 in Snow Light Snow
7:53 PM 30.0 °F - 28.9 °F 96% 30.22 in 8.0 mi Calm Calm - 0.00 in Snow Light Snow
8:30 PM 28.4 °F - 28.4 °F 100% 30.22 in 6.0 mi Calm Calm - 0.00 in Snow Light Snow
8:53 PM 28.9 °F - 28.0 °F 96% 30.23 in 5.0 mi Calm Calm - 0.00 in Snow Light Snow
9:53 PM 30.0 °F - 28.9 °F 96% 30.24 in 3.0 mi Calm Calm - 0.00 in Snow Light Snow
10:53 PM 30.0 °F - 28.9 °F 96% 30.25 in 3.0 mi Calm Calm - 0.01 in Snow Light Snow
11:53 PM 28.9 °F - 28.9 °F 100% 30.25 in 3.0 mi Calm Calm - 0.00 in Snow Light Snow